PEGASUS DEB, 24007

Orbit data source: Space-Track

PEGASUS DEB, 24007 is space debris in LEO originally from a launch on Thu, 19 May 1994 UTC launched from the Air Force Western Test Range (AFWTR). Debris objects in space refer to the collection of defunct objects orbiting the Earth. Examples of debris include non-operational satellites, rocket bodies, and fragments generated from explosions, collisions, or faulty payload assembly.

Loading next visibility...
Identifier
24007, 1994-029BC
Orbit
LEO
Country
Flag of USUS
Related business
Manufacturer
Unknown
Mission
Spacecraft
Bus & Motor
Unknown
Mass
Unknown
Launch date (UTC)
1994-05-19 (32 years ago)
Launch vehicle
Unknown
Launch site
Air Force Western Test Range (AFWTR)
Object type
Payload
Rocket body
Debris
Shape & HBR
Unknown shape, 0.1 m
Radar Cross Section
Small (<0.1 m²)

Expand to show TLE details & history
Last TLE update: 1 day ago

TLE from 1 day ago
0 PEGASUS DEB
1 24007U 94029BC  26145.34074988  .00002258  00000-0  15885-3 0  9995
2 24007  81.9185 290.4096 0061228 308.9912  72.3640 15.03103658621461
Epoch: 2026-05-25T08:10Z
TLE epoch observation values (Epoch: 2026-05-25T08:10:40.789Z)
Latitude
21.80911°
Longitude
-71.95094°
Altitude
547.483 km
Speed
7.597 km/s
True Right ascension
19h 34m 35s
True Declination
21° 41' 14"
Sunlit
Object was in full shadow at epoch
Visualization orbit readout
Latitude
Unknown
Longitude
Unknown
Altitude
Unknown
Speed
Unknown
Apparent Right ascension
Unknown
Apparent Declination
Unknown
Sunlit
N/A
Visualization observer readout
Local Sidereal Time
19:12:52
Azimuth
Unknown
Elevation
Unknown
Doppler factor
Unknown
Orbital elements
Apogee altitude
596.797 km
Perigee altitude
511.905 km
Semi-major axis
6,932.488 km
Eccentricity
0.00612
Inclination
81.9185°
RAAN
290.4096°
Arg. of periapsis
308.9912°
True anomaly
73.03418°
Mean anomaly
72.364°
Eccentric anomaly
72.69894°
Mean motion
3.76019 °/min
Orbital period
95.74 mins
BSTAR
0.00015885
Loading maneuver chart data...
Computing Atmospheric mass density...

Documentation

Showing up to 5 results
|